Погода в Ачинске

Погода в Ачинске : погода сейчас, прогноз погоды и архив. Всё, что Вы хотите узнать о погоде в Ачинске!

Поиск расширенной информации на нашем сайте:

Другие новости

Новости СМИ2

Главная страница сайта

Новости сайта

03.07.2017

Напоминаем, что на нашем специализированном сайте Метеоцентр.Азия вы можете получить высокодетализированные автоматические прогнозы погоды по пунктам России, СНГ и мира в авиационном формате (включающие направление и скорость ветра, видимость, явления погоды, количество и форму облачности, нижнюю и верхнюю границу облачности).


Погода в Ачинске - сегодня

Время (UTC), дата Ветер
(°,м/с) 
Видим.   Явления Облачность Т
(°С)
Тd
(°С)
f(%) Тe
(°С)
Pmin
(гПа)
dP
(гПа)
Po
(мм)
O2
(г/м3)
Тmin Tmax R s Состояние
почвы
03 18.05.18 260 (З) 20000 м    9/9 600 м 
[Sc]
-1.8 -10.1 53 -4  1017.8  739  301           
06 18.05.18 260 (З) 20000 м  в посл. час ливневой снег  10/10 600 м кучево-дожд. 
[Cb cap]
-0.6 -7.9 58 -2  1017.6  -0.1  739  299           
09 18.05.18 250 (З) 20000 м    10/8 600 м верхняя 
[Sc|Cs]
+1.3 -8.2 49 1016.8  -0.5  739  297           
15 18.05.18 140 (ЮВ) 20000 м    ясно 
+1.1 -7.2 54 1015.3  -1.2  738  297           
18 18.05.18 140 (ЮВ) 20000 м    ясно 
+0.4 -4.3 71 -1  1012.7  -2.6  736  296           
21 18.05.18 130 (ЮВ) 3{11}  20000 м    9/9 600 м 
[Sc]
+1.6 -3.8 67 1008.8  -3.7  733  294           
18 19.05.18 250 (З) 20000 м  слаб. ливневой снег  10/10 600 м кучево-дожд. 
[Cb cap]
-0.8 -1.3 96 -3  1016.6  2.1  738  299           
21 19.05.18 250 (З) 10 км  слаб. ливневой снег  10/10 600 м кучево-дожд. 
[Cb cap]
-1.4 -1.6 99 -4  1019  2.3  740  300           
15 20.05.18 230 (ЮЗ) 3{10}  20000 м    9/9 600 м 
[Sc]
+5 -3.3 55 +4  1024.8  0.3  745  295           
18 20.05.18 240 (ЮЗ) 20000 м    ясно 
+3.3 -2.5 66 +2  1025.1  0.1  745  297           
21 20.05.18 240 (ЮЗ) 20000 м    ясно 
+1.8 -3.1 70 1024.8  -0.5  745  298           
00 21.05.18 170 (Ю) 20000 м    ясно 
+4.2 -2.8 60 +4  1023.8  -0.7  744  296  +1         
03 21.05.18 190 (Ю) 20000 м    9/0 верхняя 
[Ci fib]
+10.7 -3.2 38 +10  1021  -2  743  288           
06 21.05.18 210 (ЮЗ) 4{10}  20000 м    10/0 верхняя 
[Cs]
+13.6 -3.5 30 +13  1017.8  -2.8  740  285           
18 21.05.18 180 (Ю) 20000 м  в посл. час ливневой дождь  9/9 600 м 
[Sc]
+8.9 +7.6 92 +8  1008  -3  733  285           
21 21.05.18 200 (Ю) 10 км  слаб. ливневой дождь  10/10 600 м кучево-дожд. 
[Cb cap]
+9.1 +8.9 99 +9  1005.3  -2.6  731  283           
03 22.05.18 250 (З) 20000 м  в посл. час ливневой дождь  10/10 600 м кучево-дожд. 
[Cb cap]
+11.1 +10.8 98 +13  1003.4  -0.3  730  281           
06 22.05.18 230 (ЮЗ) 20000 м  в посл. час ливневой дождь  9/9 600 м кучево-дожд. 
[Cb cap]
+12.9 +11.4 91 +16  1002.4  -0.8  729  278           
15 22.05.18 350 (С) 20000 м  слаб. дождь  10/10 600 м 
[Frnb]
+8.6 +6.3 85 +10  1000.5  -1  728  283           
18 22.05.18 010 (С) 20000 м  {дождь}  9/9 600 м 
[Sc]
+7 +5.2 88 +8  1000  -0.7  727  285           
21 22.05.18 030 (СВ) 20000 м    9/9 600 м 
[Sc]
+5.4 +3.9 90 +5  999.5  -0.7  726  286           
03 23.05.18 020 (С) 20000 м    9/9 600 м 
[Cu Sc]
+7.6 +2.3 69 +9  999  -0.4  726  284           
06 23.05.18 090 (В) 20000 м    9/9 600 м 
[Cu Sc]
+9.3 +1.6 59 +10  998.3  -0.5  726  283           
09 23.05.18 010 (С) 20000 м    9/9 600 м 
[Sc]
+10.7 +0.1 48 +11  997.8  -0.4  726  281           
15 23.05.18 320 (СЗ) 20000 м    10/8 600 м верхняя 
[Sc|Cs]
+7.8 +1.2 63 +9  1000.4  1.3  727  285           
Время (UTC), дата Ветер
(°,м/с) 
Видим.   Явления Облачность Т
(°С)
Тd
(°С)
f(%) Тe
(°С)
Pmin
(гПа)
dP
(гПа)
Po
(мм)
O2
(г/м3)
Тmin Tmax R s Состояние
почвы

Для получения пояснительной информации подведите курсор к названию столбца.

ПОГОДА в Ачинске - архив

Всё, что Вы хотите узнать о погоде в Ачинске - удобно и подробно!

Выберите нужную дату (начиная с 1 января 2015* года) и нажмите кнопку "Найти".
Будут отображены архивные сводки погоды по пункту Ачинск, начиная с указанной даты.


Отображать данные в формате CSV (для использования в таблицах Excel)


Внимание! Наш архив погоды предназначен исключительно для личного некоммерческого использования в познавательных целях. Если Вам необходимы официальные справки о состоянии погоды (для производственных, юридических, коммерческих и т.п. целей), обращайтесь в органы Росгидромета.

*Примечание: данная дата относится к архиву по метеостанциям СССР (Россия, СНГ, Балтия).
Архив по метеостанциям Зарубежной Европы и Азии (кроме Китая) хранится 10 дней, по другим регионам земного шара (Китай, Африка, Америка, Австралия, Океания) - 1 день.

Ачинск - район местоположения метеостанции


Название, широта, долгота, высота метеостанции:
Ачинск 56.3°ш. 90.5°д. 272 м над ур. моря [Российская Федерация]

Дополнительная информация

В oтличие oт бoльшинства пoгoдных сайтoв мы публикуем пoдрoбную метеoинфoрмацию в детальнoм прoфессиoнальнoм фoрмате.

Характеристики температуры и влажнoсти вoздуха измеряются на высoте 2 м в тени вдали oт зданий и деревьев.
Скoрoсть ветра измеряется на высoте 10 м (на урoвне рoста челoвека скoрoсть ветра ниже в 1.5-2 раза). Если метеoстанция нахoдится в гoрoде или в лесу, тo скoрoсть ветра занижена на 2-4 м/с пo сравнению с oткрытым местoм. Скoрoсть ветра над акватoриями крупных рек и oзёр, а также на вершинах хoлмoв на 2-5 м/с выше, чем в oбычных услoвиях.
Атмoсфернoе давление в разных тoчках местнoсти мoжет значительнo oтличаться oт давления на метеoстанции, в зависимoсти oт услoвий рельефа (при пoдъёме на 10 м давление пoнижается примернo на 1 мм рт.ст.).